Overview Statistics Trail Chart Weather Telemetry Raw packets
 

This is the latest recevied weather packets stored in our database for station/object NR6G-12. If no packets are shown the sender has not sent any weather packets the latest 10 day(s).

<< 85 86 87 88 89 90 91 >>
Time Temp. Humidity Pressure Rain* Wind** Luminosity Snow
1787892912 22.78° C 46% 1020.2 hPa 0 mm - - -
1787892552 22.22° C 47% 1020.2 hPa 0 mm - - -
1787892192 22.22° C 47% 1020.2 hPa 0 mm - - -
1787891833 21.67° C 49% 1020.2 hPa 0 mm - - -
1787891472 21.67° C 51% 1020.2 hPa 0 mm - - -
1787891112 21.67° C 51% 1020.2 hPa 0 mm - - -
1787890752 21.11° C 53% 1020.2 hPa 0 mm - - -
1787890392 20.56° C 57% 1020.2 hPa 0 mm - - -
1787889672 20° C 59% 1020.3 hPa 0 mm - - -
1787888952 20.56° C 59% 1020.1 hPa 0 mm - - -
1787888592 20.56° C 59% 1020.2 hPa 0 mm - - -
1787888232 20° C 59% 1020.3 hPa 0 mm - - -
1787887872 20° C 61% 1020.3 hPa 0 mm - - -
1787887512 19.44° C 61% 1020.1 hPa 0 mm - - -
1787887152 19.44° C 65% 1020 hPa 0 mm - - -
1787886792 18.89° C 65% 1019.9 hPa 0 mm - - -
1787886438 18.33° C 67% 1019.9 hPa 0 mm - - -
1787886072 18.33° C 74% 1019.8 hPa 0 mm - - -
1787885712 17.78° C 75% 1019.8 hPa 0 mm - - -
1787885352 18.33° C 73% 1019.8 hPa 0 mm - - -
1787884992 18.33° C 74% 1020.1 hPa 0 mm - - -
1787884633 17.78° C 75% 1020.3 hPa 0 mm - - -
1787884272 17.78° C 76% 1020.5 hPa 0 mm - - -
1787883912 18.33° C 75% 1020.9 hPa 0 mm - - -
1787883552 18.33° C 71% 1021 hPa 0 mm - - -

* Rain latest hour (hover to see other rain measurements)
** Current wind speed in m/s (hover to see current wind gust speed)